Location: Brad
(46.1333°N, 22.7833°E)
Time: 06:27:43
(UTC+00:00)

Cosmos 2219 Rocket - Pass Details

Date: 03 February 2023
Orbit: 826 x 848 km, 71.0° (Epoch: 29 March)

Event Time Altitude Azimuth Distance (km) Brightness Sun altitude
Rises 16:22:31 0° 152° (SSE) 3,351 5.2 -8.4°
Reaches altitude 10° 16:26:03 10° 129° (SE) 2,426 4.2 -9.0°
Maximum altitude 16:28:58 15° 97° (E) 2,122 3.7 -9.5°
Enters shadow 16:30:54 12° 75° (ENE) 2,270 3.7 -9.8°
